Location: Saluda
(35.2377°N, 82.3468°W)
Time: 23:17:43
(UTC+00:00)

Tiros 1 - Pass Details

Date: 12 October 2022
Orbit: 629 x 662 km, 48.4° (Epoch: 09 December)

Event Time Altitude Azimuth Distance (km) Brightness Sun altitude
Rises 01:39:03 0° 253° (WSW) 2,973 11.3 -33.2°
Reaches altitude 10° 01:41:30 10° 260° (W) 2,067 10.4 -33.7°
Enters shadow 01:43:57 27° 280° (W) 1,272 9.1 -34.1°
